VK4VS Weather Reports


time (UTC)temp
F
wind
direction
speed
knots
gust
knots
rain 1hr
in
rain 24hr
in
rain mn
in
humidity
%
barometer
mb
20260505013053 70 199 1.7 5.2 0.00 0.01 0.01 68 1017.1
20260505010053 70 216 1.7 6.1 0.00 0.01 0.01 68 1017.5
20260505003054 69 164 0.9 4.3 0.00 0.01 0.01 74 1017.8
20260505000053 67 264 3.5 7.8 0.00 0.01 0.01 80 1018.1
20260504233053 62 274 1.7 6.1 0.00 0.01 0.01 98 1018.4
20260504230053 60 211 0.0 3.5 0.00 0.01 0.01 99 1018.5
20260504223054 60 109 0.0 0.9 0.00 0.01 0.01 99 1018.5
20260504220053 59 0 0.0 0.0 0.00 0.01 0.01 100 1018.3
20260504213053 56 0 0.0 0.0 0.00 0.01 0.01 99 1018.0
20260504210054 54 0 0.0 0.0 0.00 0.01 0.01 99 1017.6
20260504203053 54 0 0.0 0.0 0.00 0.02 0.01 98 1017.3
20260504200053 54 0 0.0 0.0 0.00 0.02 0.01 98 1017.4
20260504193053 55 0 0.0 0.0 0.01 0.02 0.01 98 1016.9
20260504190054 56 0 0.0 0.0 0.01 0.02 0.01 99 1016.6
20260504183053 56 0 0.0 0.0 0.00 0.01 0.00 98 1016.6
20260504180053 57 0 0.0 0.0 0.00 0.01 0.00 98 1016.6
20260504173053 57 0 0.0 0.0 0.00 0.01 0.00 98 1016.4
20260504043053 71 141 2.6 9.6 0.00 0.01 0.01 58 1016.3
20260504040053 72 126 1.7 7.8 0.00 0.01 0.01 54 1016.4
20260504033054 71 2 2.6 7.8 0.00 0.01 0.01 55 1016.6
20260504030053 70 15 1.7 7.8 0.00 0.01 0.01 56 1017.0
20260504023053 70 326 3.5 8.7 0.00 0.01 0.01 59 1017.4
20260504020053 69 320 3.5 8.7 0.00 0.01 0.01 61 1018.1